Regional Weather Roundup
Issued by NWS

Home | Current Version | Previous Version | Graphics & Text | Print | Product List | Glossary Off
Versions: 1 2 3 4 5 6 7 8 9 10 11 12 13 14 15 16 17 18 19 20 21 22 23 24 25 26 27 28 29 30 31 32 33 34 35 36 37 38 39 40 41 42 43 44 45 46 47 48 49 50

000
ASUS43 KMKX 072111
RWRWI

WISCONSIN REGIONAL WEATHER ROUNDUP
NATIONAL WEATHER SERVICE MILWAUKEE/SULLIVAN WI
400 PM CDT TUE JUL 07 2015

NOTE: "FAIR" INDICATES FEW OR NO CLOUDS BELOW 12,000 FEET WITH NO
SIGNIFICANT WEATHER AND/OR OBSTRUCTIONS TO VISIBILITY.

WIZ001-002-006>008-014>016-023>028-072200-
NORTHWEST WISCONSIN

CITY           SKY/WX    TMP DP  RH WIND       PRES   REMARKS
SUPERIOR ARPT  SUNNY     71  48  43 SW7       30.10F
ASHLAND        SUNNY     70  46  42 CALM      30.12S
HAYWARD        SUNNY     68  41  37 NE7       30.13S
SIREN          MOSUNNY   68  41  37 N9        30.13S
CUMBERLAND     MOSUNNY   68  45  42 NE6       30.13F
RICE LAKE      MOSUNNY   68  45  44 NW5       30.14S
CHETEK         MOSUNNY   69  48  47 NW5       30.12S
LADYSMITH      SUNNY     69  46  42 N10       30.13S
EAU CLAIRE     MOSUNNY   71  48  43 VRB5      30.10F
MENOMONIE      MOSUNNY   69  47  44 NE6       30.12S
NEW RICHMOND   MOSUNNY   68  47  47 N5        30.14S
OSCEOLA        PTSUNNY   70  47  44 NE3       30.16S
$$

WIZ003>005-009-010-017-018-072200-
NORTH CENTRAL WISCONSIN

CITY           SKY/WX    TMP DP  RH WIND       PRES   REMARKS
MANITOWISH WTR MOSUNNY   64  45  50 W6        30.12S
ARBOR VITAE    PTSUNNY   64  45  48 N7        30.12R
WOODRUFF       PTSUNNY   64  45  48 N7        30.12R
RHINELANDER    MOSUNNY   67  44  43 N8        30.11S
EAGLE RIVER    MOSUNNY   66  43  42 NW10      30.10S
LAND O LAKES   SUNNY     64  42  44 NW7       30.12S
PHILLIPS       MOSUNNY   66  46  47 NW10      30.11S
TOMAHAWK       MOSUNNY   66  46  47 NW6       30.11S
MEDFORD        PTSUNNY   67  47  48 N6        30.11S
MERRILL        MOSUNNY   67  48  50 N8G18     30.10S
$$

WIZ029-030-035-036-043>047-072200-
CENTRAL WISCONSIN

CITY           SKY/WX    TMP DP  RH WIND       PRES   REMARKS
WAUSAU         MOSUNNY   70  45  40 N8        30.08R
MOSINEE        PTSUNNY   66  46  48 NE13      30.10S
MARSHFIELD     MOSUNNY   70  46  42 N8        30.09F
STEVENS POINT  MOSUNNY   66  46  48 N10       30.09S
WAUPACA        MOSUNNY   71  46  41 N7        30.08S
WAUTOMA        MOSUNNY   69  46  43 N8        30.08S
WISC RAPIDS    PTSUNNY   70  46  42 N10G24    30.10S
CAMP DOUGLAS   PTSUNNY   68  52  56 NW8       30.09S
$$

WIZ011>013-019>022-031-037>040-048>050-072200-
NORTHEAST WISCONSIN

CITY           SKY/WX    TMP DP  RH WIND       PRES   REMARKS
ANTIGO         MOSUNNY   64  47  55 N8        30.10S
SHAWANO        PTSUNNY   72  49  43 N9        30.08R
OCONTO         PTSUNNY   69  48  47 N12       30.06S
STURGEON BAY   MOSUNNY   64  48  55 N12       30.09R
GREEN BAY      PTSUNNY   71  49  45 N13       30.07R
MANITOWOC      CLOUDY    65  50  58 MISG      30.06R
APPLETON       PTSUNNY   66  45  45 N9        30.07S
CLINTONVILLE   CLOUDY    70  45  40 NE10      30.07R
OSHKOSH        PTSUNNY   68  47  46 N10       30.06S
$$

WIZ032>034-041-042-053>061-072200-
SOUTHWEST WISCONSIN

CITY           SKY/WX    TMP DP  RH WIND       PRES   REMARKS
LA CROSSE      MOSUNNY   70  47  43 N10       30.10F
SPARTA         MOSUNNY   69  45  40 N10       30.10F
VIROQUA        MOSUNNY   66  49  53 N10       30.11S
BOSCOBEL       MOSUNNY   71  49  45 NW8       30.09S
PRAIRIE DU CHI PTSUNNY   68  46  45 N12G17    30.09S
PLATTEVILLE    CLOUDY    67  50  54 N10       30.08S
$$

WIZ056-057-062-063-064-067-068-072200-
SOUTH CENTRAL WISCONSIN

CITY           SKY/WX    TMP DP  RH WIND       PRES   REMARKS
REEDSBURG      PTSUNNY   68  51  53 N13       30.08S
BARABOO/DELLS  MOSUNNY   68  46  44 N6        30.08S
LONE ROCK      PTSUNNY   69  49  48 NW9       30.09R
MINERAL POINT  CLOUDY    68  46  45 N12       30.09R
MADISON        PTSUNNY   70  51  51 N7        30.07R
MIDDLETON      CLOUDY    69  49  50 N10       30.08R
WATERTOWN      PTSUNNY   67  50  54 N9G16     30.06S
MONROE         CLOUDY    68  54  60 N10G20    30.07S
JANESVILLE     PTSUNNY   72  52  49 NE9       30.05R
$$

WIZ051-052-058>065-066-070>072-072200-
SOUTHEAST WISCONSIN

CITY           SKY/WX    TMP DP  RH WIND       PRES   REMARKS
MILWAUKEE      MOSUNNY   62  50  64 NE14      30.07R
WAUKESHA       PTSUNNY   66  48  52 NW12      30.07R
MILWAUKEE/TIMM MOSUNNY   64  46  52 E9        30.07R
RACINE         MOSUNNY   64  50  60 NE12      30.08R
BURLINGTON     PTSUNNY   69  49  49 N10       30.05S
KENOSHA        MOSUNNY   66  51  58 NE13      30.06R
FOND DU LAC    CLOUDY    69  49  48 N10       30.07R
SHEBOYGAN      CLOUDY    63  51  65 E9        30.06R
WEST BEND      CLOUDY    66  46  48 N9        30.06R
JUNEAU         PTSUNNY   65  47  53 N8        30.08R
$$

LSZ147-162-072200-
LAKE SUPERIOR

STATION/POSITION TIME  TEMP    WIND        PRES    WAVE
                       AIR SEA DIR/SP/G            HT/PER
                 (UTC) (F)     (DEG/KT/KT) (MB)    (FT/S)
W MID LAKE BUOY  2050   47 39  210/ 10/ 12 1019.5R   0
DEVILS ISLAND    2100   64     210/  4/  5 1019.6S
PORT WING        2040   66     290/  5/  8 1019.6S
SAXON HARBOR     2000   65        CALM     1020.0F
$$

LMZ867-665-643>646-072200-
LAKE MICHIGAN

STATION/POSITION TIME  TEMP    WIND        PRES    WAVE
                       AIR SEA DIR/SP/G            HT/PER
                 (UTC) (F)     (DEG/KT/KT) (MB)    (FT/S)
CHAMBERS ISLAND  2000   65     350/ 12/ 15 1017.6S
S GREEN BAY BUOY 2000   65 68  350/ 12/ 16 1018.9R
N MID LAKE BUOY  2050   56 53  330/  8/ 10 1017.3R   2/ 3
NORTHPORT PIER   2000   61     350/ 14/ 17 1017.3S
SISTER BAY       2014   66     350/ 18/ 23   N/A
ALGOMA LAKESHORE 2011           10/ 12/ 17   N/A
KEWAUNEE LAKESHO 2012   60      70/  5/  9 1017.2R
SHEBOYGAN LAKESH 2100   57      40/  5/  5 1018.6R
PORT WASHINGTON  2000   62      50/  7/ 11 1018.3S
ATWATER BUOY     2100   58 59   50/ 14/ 17 1019.2R
MILWAUKEE LAKESH 2000   58      30/ 13/ 15   N/A
KENOSHA   LAKESH 2100   58      30/ 14/ 16 1017.9R
$$

TC  - TEMPERATURE IN CELSIUS
VSB - VISIBILITY IN STATUTE MILES
WCI - WIND CHILL INDEX
HX  - HEAT INDEX




USA.gov is the U.S. government's official web portal to all federal, state and local government web resources and services.